Regional Weather Roundup
Issued by NWS Binghamton, NY

Home | Current Version | Previous Version | Text Only | Print | Product List | Glossary On
Versions: 1 2 3 4 5 6 7 8 9 10 11 12 13 14 15 16 17 18 19 20 21 22 23 24 25 26 27 28 29 30 31 32 33 34 35 36 37 38 39 40 41 42 43 44 45 46 47 48 49 50
000
ASUS41 KBGM 061810
RWRBGM
RWRBGM
BINGHAMTON REGIONAL WEATHER ROUNDUP
NATIONAL WEATHER SERVICE BINGHAMTON NY
200 PM EDT MON JUL 06 2015

Note: "fair" indicates few or no clouds below 12,000 feet with no
significant weather and/or obstructions to visibility.

* = Station(s) that does not report precipitation, such as rain,
snow, etc, also no thunder or fog.

!NYZ009-015>018-022>025-036-037-044>046-055>057-062-061900
...CENTRAL NEW YORK...

CITY           SKY/WX    TMP DP  RH WIND       PRES   REMARKS
BINGHAMTON     PTSUNNY   74  65  73 S8        30.17F
CORTLAND       CLOUDY    77  68  73 SW6       30.17F
DANSVILLE      PTSUNNY   80  68  66 S9        30.08F
ELMIRA         CLOUDY    78  67  68 S3        30.12F
ITHACA         CLOUDY    77  66  68 VRB3      30.16F
MONTICELLO     PTSUNNY   75  66  73 S8        30.20F
NORWICH        CLOUDY    75  61  60 CALM      30.17S
ONEONTA        SUNNY     75  55  50 CALM      30.20S
PENN YAN       PTSUNNY   79  68  69 SE9       30.12F
ROME           SUNNY     84  58  40 CALM      30.14F
SIDNEY         CLOUDY    75  68  78 CALM      30.16F
SYRACUSE       PTSUNNY   82  64  54 SE13      30.10F
$$

!PAZ038>040-043-044-047-048-072-061900
...NORTHEAST PENNSYLVANIA...

CITY           SKY/WX    TMP DP  RH WIND       PRES   REMARKS
HAZLETON       PTSUNNY   77  64  65 SE5       30.21R
SCRANTON       CLOUDY    80  63  55 S6        30.14F
TOWANDA*       MOSUNNY   79  66  65 MISG      30.14S
$$
&&
KEY
WCI = WIND CHILL INDEX
VSB = VISIBILITY
HX  = HEAT INDEX
$$


USA.gov is the U.S. government's official web portal to all federal, state and local government web resources and services.